User: anonymous   Login
Location: Newark
(49.4900°N, 20.6656°E)
Time: 15:01:19
(UTC+00:00)
Language:

STARLINK-1724 - Orbit

View from above orbital plane
View from above orbital plane
View from above satellite
View from above satellite

Ground track
Ground track

The orbit data is extracted from the following two-line orbital elements,

1 46375C 20062BD  20340.45973233  .00046332  00000-0  50530-3 0  3404
2 46375  52.9975 334.1221 0002742  15.3532 106.3555 15.62684276    17
Epoch (UTC): 05 December 2020 11:02:00
Eccentricity: 0.0002742
inclination: 52.9975°
perigee height: 378 km
apogee height: 382 km
right ascension of ascending node: 334.1221°
argument of perigee: 15.3532°
revolutions per day: 15.62684276
mean anomaly at epoch: 106.3555°
orbit number at epoch: 1

The dashed part of the orbit path shows where the satellite is in the earth's shadow,  

DLR